TimeCST,TemperatureF,Dew PointF,Humidity,Sea Level PressureIn,VisibilityMPH,Wind Direction,Wind SpeedMPH,Gust SpeedMPH,PrecipitationIn,Events,Conditions,WindDirDegrees,DateUTC
12:15 AM,1.4,-5.8,72,30.43,10.0,South,5.8,-,N/A,,Clear,170,2014-01-07 06:15:00
12:35 AM,1.4,-4.0,78,30.42,10.0,SSE,4.6,-,N/A,,Clear,150,2014-01-07 06:35:00
12:55 AM,3.2,-4.0,72,30.42,10.0,South,3.5,-,N/A,,Clear,180,2014-01-07 06:55:00
1:15 AM,3.2,-5.8,66,30.41,10.0,South,3.5,-,N/A,,Clear,170,2014-01-07 07:15:00
1:35 AM,1.4,-4.0,78,30.40,10.0,SSE,4.6,-,N/A,,Clear,150,2014-01-07 07:35:00
1:55 AM,3.2,-5.8,66,30.41,10.0,Calm,Calm,-,N/A,,Clear,0,2014-01-07 07:55:00
2:15 AM,1.4,-4.0,78,30.41,10.0,Calm,Calm,-,N/A,,Clear,0,2014-01-07 08:15:00
2:35 AM,3.2,-2.2,78,30.41,10.0,SSE,4.6,-,N/A,,Clear,160,2014-01-07 08:35:00
2:55 AM,1.4,-5.8,72,30.40,10.0,SSE,6.9,-,N/A,,Clear,160,2014-01-07 08:55:00
3:15 AM,3.2,-5.8,66,30.40,10.0,SSE,4.6,-,N/A,,Clear,160,2014-01-07 09:15:00
3:35 AM,3.2,-2.2,78,30.39,10.0,South,4.6,-,N/A,,Clear,170,2014-01-07 09:35:00
3:55 AM,3.2,-4.0,72,30.38,10.0,SSE,5.8,-,N/A,,Clear,160,2014-01-07 09:55:00
4:15 AM,5.0,-2.2,72,30.38,10.0,SSE,5.8,-,N/A,,Clear,160,2014-01-07 10:15:00
4:35 AM,5.0,-2.2,72,30.37,10.0,SSE,4.6,-,N/A,,Clear,160,2014-01-07 10:35:00
4:55 AM,6.8,-2.2,67,30.36,10.0,South,6.9,-,N/A,,Clear,170,2014-01-07 10:55:00
5:15 AM,6.8,-2.2,67,30.35,10.0,South,5.8,-,N/A,,Clear,170,2014-01-07 11:15:00
5:35 AM,8.6,-0.4,67,30.34,10.0,South,5.8,-,N/A,,Clear,180,2014-01-07 11:35:00
5:55 AM,8.6,-0.4,67,30.35,10.0,South,5.8,-,N/A,,Clear,190,2014-01-07 11:55:00
6:15 AM,8.6,-2.2,62,30.34,10.0,South,5.8,-,N/A,,Clear,180,2014-01-07 12:15:00
6:35 AM,8.6,-0.4,67,30.34,10.0,South,5.8,-,N/A,,Clear,180,2014-01-07 12:35:00
6:55 AM,10.4,1.4,67,30.33,10.0,South,5.8,-,N/A,,Clear,180,2014-01-07 12:55:00
7:15 AM,12.2,1.4,62,30.33,10.0,South,8.1,-,N/A,,Clear,190,2014-01-07 13:15:00
7:35 AM,12.2,1.4,62,30.34,10.0,South,8.1,-,N/A,,Clear,190,2014-01-07 13:35:00
7:55 AM,12.2,1.4,62,30.34,10.0,South,5.8,-,N/A,,Clear,190,2014-01-07 13:55:00
8:15 AM,15.8,3.2,58,30.34,10.0,South,8.1,-,N/A,,Clear,190,2014-01-07 14:15:00
8:35 AM,17.6,3.2,53,30.35,10.0,South,9.2,-,N/A,,Clear,190,2014-01-07 14:35:00
8:55 AM,17.6,3.2,53,30.34,10.0,SSW,11.5,-,N/A,,Clear,200,2014-01-07 14:55:00
9:15 AM,19.4,6.8,58,30.35,10.0,SSW,12.7,-,N/A,,Clear,200,2014-01-07 15:15:00
9:35 AM,21.2,6.8,54,30.35,10.0,SSW,9.2,-,N/A,,Clear,200,2014-01-07 15:35:00
9:55 AM,24.8,8.6,50,30.35,10.0,SSW,11.5,17.3,N/A,,Clear,200,2014-01-07 15:55:00
10:15 AM,26.6,8.6,47,30.35,10.0,SSW,11.5,16.1,N/A,,Clear,210,2014-01-07 16:15:00
10:35 AM,26.6,10.4,51,30.34,10.0,SSW,10.4,-,N/A,,Clear,200,2014-01-07 16:35:00
10:55 AM,28.4,10.4,47,30.33,10.0,SSW,9.2,21.9,N/A,,Clear,200,2014-01-07 16:55:00
11:15 AM,28.4,10.4,47,30.32,10.0,SSW,13.8,20.7,N/A,,Clear,210,2014-01-07 17:15:00
11:35 AM,30.2,12.2,47,30.30,10.0,SSW,13.8,20.7,N/A,,Clear,210,2014-01-07 17:35:00
11:55 AM,30.2,12.2,47,30.29,10.0,SSW,13.8,23.0,N/A,,Clear,210,2014-01-07 17:55:00
12:15 PM,32.0,14.0,48,30.27,10.0,South,12.7,-,N/A,,Clear,190,2014-01-07 18:15:00
12:35 PM,32.0,14.0,48,30.25,10.0,South,13.8,18.4,N/A,,Clear,190,2014-01-07 18:35:00
12:55 PM,33.8,14.0,44,30.24,10.0,South,11.5,16.1,N/A,,Clear,190,2014-01-07 18:55:00
1:15 PM,33.8,15.8,48,30.22,10.0,SSW,12.7,20.7,N/A,,Clear,200,2014-01-07 19:15:00
1:35 PM,35.6,15.8,44,30.21,10.0,SSW,15.0,20.7,N/A,,Clear,200,2014-01-07 19:35:00
1:55 PM,35.6,15.8,44,30.21,10.0,SSW,11.5,18.4,N/A,,Clear,200,2014-01-07 19:55:00
2:15 PM,37.4,17.6,45,30.20,10.0,SW,10.4,16.1,N/A,,Clear,220,2014-01-07 20:15:00
2:35 PM,37.4,17.6,45,30.20,10.0,SSW,13.8,17.3,N/A,,Clear,210,2014-01-07 20:35:00
2:55 PM,37.4,17.6,45,30.20,10.0,SSW,12.7,17.3,N/A,,Clear,200,2014-01-07 20:55:00
3:15 PM,37.4,17.6,45,30.20,10.0,SSW,15.0,20.7,N/A,,Clear,210,2014-01-07 21:15:00
3:35 PM,37.4,17.6,45,30.20,10.0,SSW,13.8,19.6,N/A,,Clear,210,2014-01-07 21:35:00
3:55 PM,37.4,17.6,45,30.20,10.0,SW,13.8,20.7,N/A,,Clear,220,2014-01-07 21:55:00
4:15 PM,37.4,17.6,45,30.20,10.0,SSW,13.8,19.6,N/A,,Clear,210,2014-01-07 22:15:00
4:35 PM,37.4,17.6,45,30.20,10.0,SSW,15.0,20.7,N/A,,Clear,200,2014-01-07 22:35:00
4:55 PM,37.4,17.6,45,30.19,10.0,SSW,12.7,18.4,N/A,,Clear,200,2014-01-07 22:55:00
5:15 PM,35.6,17.6,48,30.19,10.0,South,10.4,-,N/A,,Clear,190,2014-01-07 23:15:00
5:35 PM,35.6,17.6,48,30.19,10.0,SSW,9.2,-,N/A,,Clear,200,2014-01-07 23:35:00
5:55 PM,33.8,17.6,52,30.20,10.0,South,8.1,-,N/A,,Clear,190,2014-01-07 23:55:00
6:15 PM,33.8,17.6,52,30.20,10.0,SSW,9.2,-,N/A,,Clear,200,2014-01-08 00:15:00
6:35 PM,33.8,15.8,48,30.19,10.0,South,9.2,-,N/A,,Clear,190,2014-01-08 00:35:00
6:55 PM,33.8,15.8,48,30.19,10.0,South,8.1,-,N/A,,Clear,190,2014-01-08 00:55:00
7:15 PM,33.8,15.8,48,30.19,10.0,South,8.1,-,N/A,,Clear,190,2014-01-08 01:15:00
7:35 PM,33.8,15.8,48,30.19,10.0,SSW,9.2,-,N/A,,Clear,200,2014-01-08 01:35:00
7:55 PM,33.8,15.8,48,30.19,10.0,South,8.1,-,N/A,,Clear,190,2014-01-08 01:55:00
8:15 PM,30.2,15.8,55,30.20,10.0,South,5.8,-,N/A,,Clear,170,2014-01-08 02:15:00
8:35 PM,32.0,15.8,51,30.20,10.0,South,8.1,-,N/A,,Clear,190,2014-01-08 02:35:00
8:55 PM,33.8,15.8,48,30.20,10.0,South,9.2,-,N/A,,Clear,190,2014-01-08 02:55:00
9:15 PM,33.8,15.8,48,30.21,10.0,South,6.9,-,N/A,,Clear,190,2014-01-08 03:15:00
9:35 PM,32.0,15.8,51,30.21,10.0,SSW,9.2,-,N/A,,Clear,200,2014-01-08 03:35:00
9:55 PM,32.0,15.8,51,30.21,10.0,SSW,6.9,-,N/A,,Clear,200,2014-01-08 03:55:00
10:15 PM,32.0,15.8,51,30.22,10.0,SSW,8.1,-,N/A,,Clear,200,2014-01-08 04:15:00
10:35 PM,32.0,15.8,51,30.22,10.0,SSW,9.2,-,N/A,,Clear,200,2014-01-08 04:35:00
10:55 PM,33.8,14.0,44,30.22,10.0,SSW,10.4,-,N/A,,Clear,200,2014-01-08 04:55:00
11:15 PM,33.8,14.0,44,30.22,10.0,SSW,9.2,-,N/A,,Clear,210,2014-01-08 05:15:00
11:35 PM,32.0,14.0,48,30.22,10.0,SSW,10.4,-,N/A,,Clear,210,2014-01-08 05:35:00
11:55 PM,32.0,14.0,48,30.22,10.0,South,8.1,-,N/A,,Clear,190,2014-01-08 05:55:00